Fort Wayne, IN

7:08 AM EDT on August 22, 2019 (GMT -0400)
Fort Wayne International

Weather History for KFWA - June, 2019

Change the Weather History Date:

Sunday, June 2, 2019

  Actual Average Record
Temperature  
Mean Temperature 63 °F 66 °F  
Max Temperature 74 °F 77 °F 99 °F (1934)
Min Temperature 52 °F 55 °F 36 °F (1910)
Degree Days  
Heating Degree Days 2 3  
Month to date heating degree days 2 6  
Since 1 June heating degree days 2 6  
Since 1 July heating degree days 5849 6078  
Cooling Degree Days 0 4  
Month to date cooling degree days 8 7  
Year to date cooling degree days 76 64  
Since 1 June cooling degree days 8 7  
Growing Degree Days 14 (Base 50)    
Moisture  
Dew Point 51 °F    
Average Humidity 64    
Maximum Humidity 97    
Minimum Humidity 30    
Precipitation  
Precipitation 0.00 in 0.16 in 1.28 in (1947)
Month to date precipitation 0.24 0.32  
Year to date precipitation 18.11 15.12  
Snow  
Snow 0.00 in 0.00 in 0.00 in (2002)
Month to date snowfall 0.0 0.0  
Since 1 June snowfall 0.0 0.0  
Since 1 July snowfall 24.7 33.5  
Snow Depth 0.00 in    
Sea Level Pressure  
Sea Level Pressure 29.87 in    
Wind  
Wind Speed 9 mph (NNW)    
Max Wind Speed 21 mph    
Max Gust Speed 30 mph    
Visibility 9 miles    
Events      
T = Trace of Precipitation, MM = Missing Value Source: NWS Daily Summary

Daily Weather History Graph

Daily Weather History Graph

Search for Another Location

Airport or City:

Astronomy

Jun. 02, 2019 Rise Set
Actual Time 6:10 AM EDT 9:07 PM EDT
Civil Twilight 5:37 AM EDT 9:40 PM EDT
Nautical Twilight 4:56 AM EDT 10:21 PM EDT
Astronomical Twilight 4:07 AM EDT 11:10 PM EDT
Moon 5:50 AM EDT (6/2) 8:24 PM EDT (6/2)
Length of Visible Light 16h 02m
Length of Day
14h 56m
Waning Crescent, 1% of the Moon is Illuminated
Jun 2
Waning Crescent
Jun 3
New
Jun 10
First Quarter
Jun 17
Full
Jun 25
Last Quarter

Hourly Weather History & Observations

Time (EDT) Temp. Dew Point Humidity Pressure Visibility Wind Dir Wind Speed Gust Speed Precip Events Conditions
12:54 AM 62.1 °F 59.0 °F 90% 29.77 in 9.0 mi ESE 3.5 mph - 0.00 in   Mostly Cloudy
1:54 AM 61.0 °F 59.0 °F 93% 29.77 in 10.0 mi NNW 4.6 mph - N/A   Mostly Cloudy
2:54 AM 61.0 °F 59.0 °F 93% 29.75 in 10.0 mi NNW 3.5 mph - N/A   Mostly Cloudy
3:54 AM 60.1 °F 57.9 °F 93% 29.74 in 9.0 mi Calm Calm - N/A   Overcast
4:54 AM 59.0 °F 57.9 °F 96% 29.75 in 8.0 mi SSW 4.6 mph - N/A   Mostly Cloudy
5:54 AM 59.0 °F 57.9 °F 96% 29.76 in 5.0 mi WNW 4.6 mph - N/A   Mostly Cloudy
6:54 AM 60.1 °F 57.9 °F 93% 29.78 in 5.0 mi NW 5.8 mph - N/A   Partly Cloudy
7:47 AM 60.1 °F 57.0 °F 90% 29.82 in 6.0 mi NW 10.4 mph - N/A   Scattered Clouds
7:54 AM 60.1 °F 57.0 °F 90% 29.81 in 6.0 mi NW 11.5 mph - N/A   Mostly Cloudy
8:35 AM 60.1 °F 55.9 °F 86% 29.83 in 4.0 mi NW 6.9 mph - N/A   Mostly Cloudy
8:54 AM 61.0 °F 55.9 °F 83% 29.83 in 4.0 mi NW 8.1 mph - N/A   Haze
9:54 AM 64.0 °F 55.9 °F 75% 29.86 in 8.0 mi NNW 9.2 mph - N/A   Scattered Clouds
10:47 AM 64.9 °F 57.0 °F 75% 29.87 in 8.0 mi North 9.2 mph - N/A   Mostly Cloudy
10:54 AM 64.9 °F 57.0 °F 75% 29.87 in 8.0 mi North 11.5 mph - N/A   Mostly Cloudy
11:16 AM 66.0 °F 57.0 °F 73% 29.88 in 9.0 mi North 9.2 mph - N/A   Scattered Clouds
11:54 AM 66.9 °F 57.9 °F 73% 29.88 in 10.0 mi NNE 9.2 mph - N/A   Partly Cloudy
12:54 PM 71.1 °F 57.0 °F 61% 29.88 in 10.0 mi NNW 12.7 mph 19.6 mph N/A   Partly Cloudy
1:54 PM 72.0 °F 53.1 °F 51% 29.88 in 10.0 mi NW 13.8 mph 19.6 mph N/A   Scattered Clouds
2:54 PM 73.0 °F 52.0 °F 48% 29.88 in 10.0 mi NNW 13.8 mph 24.2 mph N/A   Scattered Clouds
3:54 PM 73.0 °F 48.9 °F 42% 29.89 in 10.0 mi NW 13.8 mph 24.2 mph N/A   Scattered Clouds
4:54 PM 71.1 °F 48.0 °F 44% 29.90 in 10.0 mi NW 16.1 mph 25.3 mph N/A   Partly Cloudy
5:54 PM 70.0 °F 42.1 °F 36% 29.92 in 10.0 mi NNW 15.0 mph 31.1 mph N/A   Partly Cloudy
6:54 PM 68.0 °F 35.1 °F 30% 29.94 in 10.0 mi NNW 21.9 mph 29.9 mph N/A   Partly Cloudy
7:54 PM 64.9 °F 33.1 °F 31% 29.96 in 10.0 mi NNW 12.7 mph 23.0 mph N/A   Clear
8:54 PM 61.0 °F 37.9 °F 42% 29.97 in 10.0 mi NNW 8.1 mph - N/A   Clear
9:54 PM 59.0 °F 39.0 °F 48% 29.98 in 10.0 mi NW 4.6 mph - N/A   Clear
10:54 PM 55.0 °F 43.0 °F 64% 30.00 in 10.0 mi Calm Calm - N/A   Clear
11:54 PM 54.0 °F 45.0 °F 72% 30.00 in 10.0 mi Calm Calm - N/A   Clear